Location: Vancouver
(49.2500°N, 123.1330°W)
Time: 03:39:53
(UTC-07:00)

Iridium 21 - Visible Passes

Search period start: 24 July 2014 00:00
Search period end: 03 August 2014 00:00
Orbit: 776 x 779 km, 86.4° (Epoch: 23 July)

Date Brightness Start Highest point End Pass type
(mag) Time Alt. Az. Time Alt. Az. Time Alt. Az.
24 Jul 6.9 00:40:37 21° ESE 00:42:30 27° E 00:46:47 10° NNE visible
24 Jul 6.1 02:21:05 32° SW 02:22:58 46° W 02:28:00 10° N visible
25 Jul 7.5 00:07:14 13° ESE 00:09:18 16° ENE 00:12:23 10° NE visible
25 Jul 5.5 01:47:42 45° SSW 01:49:20 79° W 01:54:35 10° N visible
25 Jul 7.7 03:28:50 10° W 03:31:00 13° WNW 03:33:11 10° NW visible
26 Jul 5.7 01:14:19 43° SSE 01:15:50 62° E 01:20:59 10° N visible
26 Jul 7.2 02:54:48 16° WSW 02:57:02 21° WNW 03:00:55 10° NNW visible
27 Jul 6.5 00:40:56 30° ESE 00:42:27 36° E 00:47:11 10° NNE visible
27 Jul 6.6 02:21:24 27° WSW 02:23:12 34° WNW 02:27:56 10° NNW visible
28 Jul 7.1 00:07:32 19° ESE 00:09:12 22° ENE 00:13:06 10° NNE visible
28 Jul 5.8 01:48:00 42° SW 01:49:29 57° W 01:54:39 10° N visible
28 Jul 7.6 23:34:08 11° E 23:36:03 13° ENE 23:38:19 10° NE visible
29 Jul 5.4 01:14:36 52° S 01:15:55 85° E 01:21:10 10° N visible
29 Jul 7.6 02:55:05 12° W 02:57:23 15° WNW 03:00:25 10° NNW visible
30 Jul 6.0 00:41:12 41° SE 00:42:27 50° E 00:47:29 10° NNE visible
30 Jul 7.0 02:21:40 21° WSW 02:23:28 25° WNW 02:27:45 10° NNW visible
31 Jul 6.7 00:07:47 26° ESE 00:09:07 30° E 00:13:35 10° NNE visible
31 Jul 6.3 01:48:15 34° WSW 01:49:41 41° W 01:54:38 10° N visible
31 Jul 7.3 23:34:22 16° E 23:35:54 18° ENE 23:39:19 10° NE visible
01 Aug 5.6 01:14:50 52° SSW 01:16:02 71° W 01:21:15 10° N visible
01 Aug 7.8 02:56:19 10° W 02:57:48 11° WNW 02:59:17 10° NW visible
01 Aug 7.8 23:02:10 10° ENE 23:02:49 10° ENE 23:03:27 10° ENE visible
02 Aug 5.5 00:41:25 53° SSE 00:42:30 69° E 00:47:42 10° N visible
02 Aug 7.4 02:21:53 16° W 02:23:47 19° WNW 02:27:25 10° NNW visible
